{"data":{"norad_id":56146,"epoch":"2026-05-25T02:03:23.469120Z","epoch_age_seconds":70841,"freshness":"FRESH","line1":"1 56146U 23046BG  26145.08568830  .00000356  00000+0  22448-4 0  9990","line2":"2 56146  43.0050  75.5588 0001374 263.1095  96.9601 15.27578257173882","mean_motion":15.27578257,"eccentricity":0.0001374,"inclination_deg":43.005,"raan_deg":75.5588,"arg_perigee_deg":263.1095,"mean_anomaly_deg":96.9601,"bstar":2.2448e-5,"rev_number":17388,"period_min":94.266856274061,"perigee_km":482.11158752695,"apogee_km":483.99704290037,"semimajor_km":6861.1913152137,"source":"CELESTRAK","updated_at":"2026-05-25T13:38:17.963573Z"}}